SCP
0 0 0 0 0 0 0 1 1 1 0 0 0 0 0 0 0 0 0 0 0 0 0 0 0 0 0 0 0 0 1 1 1 0 0 0 0 0 0 0 0 0 0
0 0 0 0 1 1 1 1 1 1 1 0 0 0 0 0 0 0 0 0 0 0 0 0 1 1 0 0 0 0 1 1 1 0 0 0 0 0 0 0 0 0 0
0 0 0 1 1 1 1 1 1 1 1 1 1 1 1 1 1 1 1 1 0 0 0 0 1 1 1 1 1 1 1 1 0 0 0 0 0 0 0 0 0 0 0
1 1 1 1 1 1 1 1 1 1 1 1 1 1 1 1 1 1 1 1 1 1 1 1 1 1 1 1 1 1 1 1 0 0 0 0 0 0 0 0 0 0 0
1 1 1 1 1 1 1 1 1 1 1 1 1 1 1 1 1 1 1 1 1 1 1 1 1 1 1 1 1 1 1 1 0 0 0 0 0 0 0 0 0 0 0
1 1 1 1 1 1 1 1 1 1 1 1 1 1 1 1 1 1 1 1 1 1 1 1 1 1 1 1 1 1 1 1 0 0 0 0 0 0 0 0 0 0 0
0 1 1 1 1 1 1 1 1 1 1 1 1 1 2 2 2 1 1 1 1 1 1 1 1 1 1 1 1 1 1 1 0 0 0 0 0 0 0 0 0 0 0
0 0 0 1 1 1 1 1 1 1 1 1 1 1 1 2 2 1 1 1 1 1 1 1 1 1 1 1 1 1 1 1 0 0 0 0 1 0 0 0 0 0 0
0 0 0 0 0 0 0 0 1 1 1 1 1 1 1 1 1 1 2 2 1 1 1 1 1 1 1 1 1 1 1 0 0 0 0 0 1 0 0 0 0 0 0
0 0 0 0 0 0 0 0 0 1 1 1 1 1 1 1 1 1 1 1 1 1 1 1 1 1 1 1 1 1 1 0 0 0 0 0 1 0 0 0 0 0 0
0 0 0 0 0 0 0 0 0 0 0 0 0 0 1 1 1 1 1 1 1 1 1 1 1 1 1 1 1 1 1 0 0 0 0 0 0 0 0 0 0 0 0
0 0 0 0 0 0 0 0 0 0 0 0 0 0 1 1 1 1 1 1 1 1 1 1 1 1 1 1 1 1 1 0 0 0 0 0 0 0 0 0 0 0 0
0 0 0 0 0 0 0 0 0 0 0 0 0 0 1 1 1 1 1 1 1 1 1 1 1 1 1 1 1 1 1 0 0 0 0 0 0 0 0 0 0 0 0
0 0 0 0 0 0 0 0 0 0 0 0 0 0 1 1 1 1 1 1 1 1 1 1 1 1 1 1 1 1 1 1 0 0 0 0 0 0 0 0 0 0 0
0 0 0 0 0 0 0 0 0 0 0 0 0 0 0 0 0 1 1 1 1 1 1 1 1 1 1 1 1 1 1 1 0 0 0 0 0 0 0 0 0 0 0
0 0 0 0 0 0 0 0 0 0 0 0 0 0 0 0 0 0 0 0 1 1 1 1 1 1 1 1 1 1 1 1 0 0 0 0 0 0 0 0 0 0 0
0 0 0 0 0 0 0 0 0 0 0 0 0 0 0 0 0 0 0 0 0 0 0 1 1 1 1 1 1 1 1 1 1 0 0 0 0 0 0 0 1 1 1
0 0 0 0 0 0 0 0 0 0 0 0 0 0 0 0 0 0 0 0 0 0 0 0 1 1 1 1 1 1 1 1 1 0 0 0 0 0 0 0 1 1 1
0 0 0 0 0 0 0 0 0 0 0 0 0 0 0 0 0 0 0 0 0 0 0 0 1 1 1 1 1 1 1 1 1 1 0 0 0 0 0 0 1 1 1
0 0 0 0 0 0 0 0 0 0 0 0 0 0 0 0 0 0 0 0 0 0 0 0 1 1 1 1 1 1 1 1 1 1 1 1 1 1 0 0 0 1 1
0 0 0 0 0 0 0 0 0 0 0 0 0 0 0 0 0 0 0 0 0 0 0 0 1 1 1 1 1 1 1 1 1 1 1 1 1 1 1 1 1 1 1
0 0 0 0 0 0 0 0 0 0 0 0 0 0 0 0 0 0 0 0 0 0 0 1 1 1 1 1 1 1 1 1 1 1 1 1 1 1 1 1 1 1 1
0 0 0 0 0 0 0 0 0 0 0 0 0 0 0 0 0 0 0 0 0 0 0 0 0 1 1 1 1 1 1 1 1 1 1 1 1 1 1 1 1 1 1
0 0 0 0 0 0 0 0 0 0 0 0 0 0 0 0 0 0 0 0 0 0 0 0 0 0 0 0 1 1 1 1 1 1 1 1 1 1 1 1 1 1 1
0 0 0 0 0 0 0 0 0 0 0 0 0 0 0 0 0 0 0 0 0 0 0 0 0 0 0 0 0 0 1 1 1 1 1 1 1 1 1 1 1 1 1
0 0 0 0 0 0 0 0 0 0 0 0 0 0 0 0 0 0 0 0 0 0 0 0 0 0 0 0 0 0 0 1 1 1 1 1 1 1 1 1 1 1 1
Wind_Speed
5 6 7 5 5 5 4 4 4 4 3 3 3 3 2 2 2 2 2 2 2 1 1 1 1 1 2 2 2 2 2 2 2 2 2 2 2 2 3 3 3 5 8
6 7 8 4 4 4 3 2 2 1 2 2 2 2 2 2 2 3 3 3 2 2 2 1 1 0 1 1 1 1 1 1 1 1 0 3 3 2 3 2 2 4 6
6 7 8 5 4 4 3 2 1 1 1 1 2 2 2 3 3 4 4 4 4 4 3 3 2 2 1 1 0 1 1 1 1 1 4 4 4 4 2 2 2 4 5
7 6 6 6 4 4 3 3 3 3 3 3 3 3 4 4 5 5 6 6 6 5 5 4 4 3 2 2 1 1 1 1 1 4 6 2 2 6 2 2 3 4 4
7 6 8 6 5 4 4 3 3 3 4 5 4 5 5 5 6 6 7 8 7 7 7 6 5 5 4 3 3 2 2 2 3 8 3 2 1 3 2 3 3 4 4
7 6 8 6 5 5 4 3 3 3 4 5 5 5 6 6 6 7 8 8 8 8 7 7 7 7 6 5 4 4 3 3 7 5 3 3 2 2 3 3 3 4 4
6 6 7 7 5 5 4 3 4 4 4 4 5 5 6 6 7 7 8 9 8 8 8 7 8 8 7 6 5 4 4 4 7 4 4 3 0 0 3 3 4 4 5
6 5 6 7 6 6 5 5 5 5 5 5 5 5 5 6 7 7 8 8 8 8 7 8 8 8 8 7 6 5 4 7 6 5 4 3 1 2 4 4 4 5 5
5 4 3 3 4 4 4 5 6 6 6 6 6 5 5 5 5 6 6 7 7 6 6 7 8 8 8 7 6 6 5 4 8 5 5 2 2 3 4 4 4 5 5
4 3 2 3 3 3 2 4 5 6 6 6 5 5 5 6 6 5 7 6 6 6 7 7 8 8 8 8 7 6 5 7 8 6 4 1 2 4 4 4 5 5 5
3 1 2 2 3 4 5 4 3 2 2 5 3 2 5 6 5 5 5 4 6 6 7 7 9 9 7 7 7 7 7 6 5 5 4 3 1 4 4 4 5 5 5
2 1 2 3 4 4 4 4 3 4 3 4 5 5 4 4 4 5 2 5 6 5 6 7 8 9 6 5 6 8 5 6 5 5 2 3 3 5 5 5 5 6 6
1 1 2 3 4 5 4 4 4 3 3 3 4 4 4 4 3 4 3 3 4 5 5 5 6 6 5 4 5 5 5 5 4 4 2 4 3 5 5 5 6 6 6
1 1 2 3 4 5 5 4 4 3 3 4 4 5 4 3 4 3 3 3 3 2 2 3 3 4 5 6 6 6 6 5 4 3 2 4 4 5 5 6 6 6 6
2 1 1 3 5 5 5 4 4 4 4 4 4 4 5 4 4 4 3 2 3 2 2 3 4 4 5 5 5 6 6 7 6 5 2 5 4 5 6 6 6 7 7
3 1 1 2 4 5 4 4 4 4 3 4 4 5 6 5 4 4 4 3 3 2 3 3 4 4 4 4 5 6 6 6 6 6 5 5 6 5 5 6 6 6 7
3 2 2 1 3 5 5 5 4 4 4 4 4 5 6 5 6 5 5 4 3 3 3 3 4 4 4 4 5 5 4 5 6 6 5 4 5 8 7 6 6 7 7
3 2 2 0 3 4 4 5 4 3 4 3 4 5 6 6 6 5 4 4 4 3 3 2 2 3 3 3 3 3 3 3 6 6 5 5 4 4 8 7 6 7 7
4 2 1 1 3 3 4 3 3 3 3 3 4 5 6 7 7 5 4 4 5 3 3 3 1 2 2 2 3 3 3 3 5 5 6 5 4 4 4 7 7 7 8
4 3 1 1 2 3 2 2 2 2 2 3 4 5 6 6 7 6 4 5 5 3 3 3 2 2 2 2 3 2 3 3 4 4 4 4 4 4 5 5 6 8 9
6 5 2 1 0 1 2 3 2 2 2 2 3 5 5 6 7 6 5 5 5 4 4 3 2 2 1 1 2 2 3 4 4 3 3 4 4 4 5 5 5 4 6
7 6 4 2 0 2 2 3 2 2 2 3 2 3 5 6 7 6 6 5 5 4 5 4 2 2 1 0 1 2 2 3 3 2 2 3 4 4 4 5 5 5 5
8 6 3 2 2 0 1 1 1 1 1 1 2 3 4 5 5 6 7 6 5 5 4 4 3 2 1 0 1 2 1 1 1 2 2 2 2 2 3 4 5 5 5
9 6 5 4 2 1 1 1 3 3 3 3 3 3 3 3 5 5 6 6 6 5 5 5 5 3 3 1 0 1 1 2 1 1 2 2 1 1 2 2 4 4 5
8 7 5 4 4 3 1 1 3 2 2 2 2 2 3 3 3 4 5 5 5 5 6 5 5 4 3 3 2 1 1 1 2 2 1 1 1 1 1 2 2 2 3
8 7 6 6 5 3 3 3 3 2 3 2 2 3 2 1 2 3 4 4 4 5 5 5 5 4 4 3 2 2 2 1 1 2 1 1 1 0 1 1 2 1 2
Wind_Direction
142 139 123 147 140 134 129 129 132 133 138 145 148 155 160 166 175 180 181 186 182 172 159 135 121 115 107 85 71 69 71 79 84 91 97 101 99 106 109 127 181 129 107
128 128 121 132 125 118 112 112 120 140 166 175 182 194 203 220 227 225 224 227 225 218 220 224 218 195 146 123 77 48 45 47 39 66 204 191 156 126 130 136 315 90 123
123 122 129 118 114 104 91 83 65 291 257 246 244 241 240 248 254 251 247 246 246 240 235 238 246 245 234 236 272 342 351 348 338 273 254 234 156 144 153 154 155 133 139
113 110 101 102 96 90 72 46 18 348 323 302 289 280 271 267 266 263 261 256 251 249 243 240 247 250 244 240 259 286 302 309 297 263 243 239 201 126 173 187 182 170 161
106 102 92 84 81 77 66 47 23 352 326 311 301 295 288 281 277 270 265 260 255 250 247 244 243 248 247 244 249 264 277 282 272 260 277 288 270 121 204 208 200 188 176
104 95 88 74 67 60 46 25 8 338 315 308 302 297 291 286 281 278 274 269 260 254 251 249 250 249 247 246 249 258 269 277 259 254 268 260 240 139 231 221 212 200 189
102 93 87 69 60 52 39 14 357 344 331 316 307 304 303 302 290 281 278 273 268 259 252 250 248 253 251 247 248 253 262 272 266 267 258 256 283 95 245 226 218 208 198
97 91 92 89 63 46 31 16 0 346 332 324 317 310 307 307 303 292 284 279 274 267 260 252 247 250 252 248 244 245 256 274 248 252 251 250 76 268 252 225 216 212 208
102 91 71 72 86 82 45 14 358 350 341 335 329 318 316 314 305 295 293 288 281 272 266 257 248 246 249 249 245 241 243 267 273 252 251 235 106 269 256 223 214 217 215
121 102 70 42 20 359 1 50 2 350 344 335 324 320 309 281 261 259 267 269 274 268 259 251 245 242 244 244 242 240 237 243 247 247 248 168 117 268 255 230 221 219 215
141 116 66 18 14 352 337 18 335 326 335 296 272 278 278 277 279 252 260 282 270 261 253 245 233 226 230 234 237 236 232 243 238 252 247 77 276 268 252 234 223 218 211
155 100 28 360 6 353 349 342 329 323 340 317 328 323 304 308 301 292 221 251 261 255 245 232 228 213 215 224 219 222 230 236 243 240 196 115 260 262 245 233 223 218 212
130 91 23 4 6 353 352 342 339 330 331 316 334 325 309 304 291 284 279 237 237 233 237 212 215 211 206 219 231 226 235 244 245 248 172 133 245 255 240 229 223 218 214
165 88 27 360 356 358 354 346 328 333 332 334 339 332 328 322 309 311 293 297 280 254 244 244 234 217 214 216 229 233 225 233 239 250 170 149 235 244 236 228 219 213 211
165 157 46 350 353 359 357 331 336 347 340 349 345 335 337 325 321 316 299 298 287 279 251 244 240 229 227 225 227 230 233 234 233 238 194 166 222 240 239 226 217 212 207
177 146 99 352 359 346 343 342 353 348 348 342 353 347 342 337 328 321 309 300 297 282 278 257 243 237 232 225 230 231 235 241 239 235 238 182 193 219 232 223 218 215 206
164 148 108 354 349 346 350 351 344 343 347 350 355 346 350 347 334 327 323 314 308 290 269 262 254 241 230 222 226 234 231 244 247 237 235 234 195 190 209 218 217 216 211
165 152 123 344 342 353 350 340 346 353 356 356 359 355 355 355 348 343 335 329 321 309 293 271 256 243 232 225 225 233 230 232 247 246 241 229 222 206 187 192 210 212 209
171 183 157 49 346 353 348 334 339 353 360 359 4 6 359 359 353 354 347 338 330 320 311 295 274 266 241 231 228 226 235 233 242 241 240 238 219 222 208 171 195 208 206
176 192 171 110 330 352 335 325 344 350 356 5 5 12 3 356 359 357 349 352 346 337 331 313 299 273 266 246 242 222 230 229 238 236 241 243 241 221 221 206 193 194 201
181 195 194 231 66 344 342 333 342 360 348 1 9 11 358 359 359 4 354 0 355 356 349 334 309 277 272 259 243 219 210 216 231 225 231 235 233 232 226 218 220 210 191
187 200 205 194 87 7 7 349 350 342 337 1 346 5 2 2 0 359 2 0 7 359 6 360 347 323 336 284 272 248 210 184 198 199 210 227 232 219 232 226 221 218 234
192 198 201 182 174 141 34 343 317 301 277 300 358 9 4 1 6 2 5 1 2 4 14 8 5 354 327 283 317 299 277 218 157 154 175 200 233 237 235 243 232 219 224
191 189 197 183 190 134 224 328 338 335 344 360 343 358 359 11 12 7 7 3 5 9 8 8 21 359 346 346 42 341 347 355 290 180 164 149 166 235 250 244 247 235 229
182 182 191 183 190 185 231 281 288 316 337 340 330 349 346 28 13 14 5 5 8 11 14 12 11 7 2 356 354 350 356 318 296 286 193 145 169 197 230 246 249 250 246
179 180 186 190 199 201 226 246 274 309 306 324 334 351 344 25 18 30 3 1 6 12 13 9 7 15 7 4 348 355 348 332 333 317 289 259 233 197 235 226 242 230 240